Location: Ariel
(45.9570°N, 122.5700°W)
Time: 21:32:08
(UTC-07:00)

Altair - Pass Details

Date: 26 July 2019
Orbit: 1501 x 1683 km, 47.2° (Epoch: 19 August)

Event Time Altitude Azimuth Distance (km) Brightness Sun altitude
Rises 09:13:16 0° 181° (S) 4,692 10.1 33.9°
Reaches altitude 10° 09:17:46 10° 162° (SSE) 3,685 9.9 34.7°
Maximum altitude 09:23:04 17° 126° (SE) 3,151 10.4 35.6°
Drops below altitude 10° 09:28:19 10° 91° (E) 3,655 10.8 36.5°
Sets 09:32:43 0° 72° (ENE) 4,637 10.8 37.2°
